TimeMST,TemperatureF,Dew PointF,Humidity,Sea Level PressureIn,VisibilityMPH,Wind Direction,Wind SpeedMPH,Gust SpeedMPH,PrecipitationIn,Events,Conditions,WindDirDegrees,DateUTC
12:53 AM,28.0,21.0,75,29.91,10.0,South,6.9,-,N/A,,Mostly Cloudy,190,2012-12-08 07:53:00
1:53 AM,30.0,21.0,69,29.88,10.0,SSW,9.2,-,N/A,,Overcast,200,2012-12-08 08:53:00
2:53 AM,30.0,21.0,69,29.88,10.0,SSW,6.9,-,N/A,,Overcast,210,2012-12-08 09:53:00
3:53 AM,28.9,19.9,69,29.88,10.0,SW,6.9,-,N/A,,Overcast,230,2012-12-08 10:53:00
4:53 AM,30.9,24.1,76,29.84,10.0,SSW,9.2,-,N/A,,Partly Cloudy,200,2012-12-08 11:53:00
5:53 AM,32.0,24.1,73,29.81,10.0,SSW,20.7,-,N/A,,Partly Cloudy,200,2012-12-08 12:53:00
6:53 AM,32.0,21.9,66,29.81,10.0,SSW,17.3,26.5,N/A,,Overcast,210,2012-12-08 13:53:00
7:53 AM,33.1,19.9,59,29.80,10.0,SSW,20.7,-,N/A,,Overcast,200,2012-12-08 14:53:00
8:53 AM,35.1,19.9,54,29.82,10.0,SSW,23.0,35.7,N/A,,Overcast,200,2012-12-08 15:53:00
9:53 AM,36.0,19.9,52,29.80,10.0,SSW,23.0,32.2,N/A,,Mostly Cloudy,200,2012-12-08 16:53:00
10:53 AM,43.0,21.0,42,29.75,10.0,SSW,17.3,24.2,N/A,,Clear,200,2012-12-08 17:53:00
11:44 AM,39.2,28.4,65,29.72,6.0,WNW,27.6,41.4,0.00,Rain,Light Rain,290,2012-12-08 18:44:00
11:53 AM,39.0,30.9,73,29.79,7.0,WNW,21.9,33.4,0.00,,Unknown,300,2012-12-08 18:53:00
12:53 PM,45.0,14.0,29,29.68,10.0,WNW,26.5,38.0,0.00,,Mostly Cloudy,300,2012-12-08 19:53:00
1:53 PM,46.0,10.0,23,29.67,10.0,WNW,33.4,43.7,N/A,,Clear,300,2012-12-08 20:53:00
2:53 PM,43.0,12.9,30,29.68,10.0,WNW,28.8,40.3,N/A,,Mostly Cloudy,300,2012-12-08 21:53:00
3:53 PM,42.1,12.9,31,29.71,10.0,WNW,31.1,38.0,N/A,,Overcast,300,2012-12-08 22:53:00
4:53 PM,39.9,14.0,35,29.73,10.0,WNW,19.6,39.1,N/A,,Overcast,300,2012-12-08 23:53:00
6:53 PM,30.0,19.9,66,29.85,10.0,NNW,17.3,-,N/A,,Overcast,330,2012-12-09 01:53:00
7:53 PM,28.9,18.0,64,29.89,10.0,NNW,12.7,23.0,N/A,,Mostly Cloudy,330,2012-12-09 02:53:00
8:53 PM,28.0,18.0,66,29.92,10.0,NNW,16.1,21.9,N/A,,Mostly Cloudy,330,2012-12-09 03:53:00
9:53 PM,27.0,15.1,61,29.96,10.0,NNW,23.0,33.4,N/A,,Partly Cloudy,330,2012-12-09 04:53:00
10:53 PM,21.9,10.0,60,29.98,10.0,NNW,20.7,29.9,N/A,,Clear,330,2012-12-09 05:53:00
11:53 PM,21.0,7.0,55,30.02,10.0,NW,16.1,-,N/A,,Clear,320,2012-12-09 06:53:00